Flag for United Kingdom Weather past 2 weeks in St. Peter Port, Guernsey, United Kingdom

Now
70 °F

Clear.


Feels Like: 70 °F
Forecast: 64 / 69 °F
Wind: 15 mph from Northeast

Location: Guernsey Airport

Current Time: Sep 17, 2014 at 2:36:31 PM

Latest Report: Sep 17, 2014 at 2:20 PM


Visibility: 5 mi

Pressure: 29.74 "Hg

Humidity: 83%

Dew point: 64 °F

Location of St. Peter PortLocation

Historic Weather in St. Peter Port — Graph

°F

St. Peter Port temperature yesterday

Maximum temperature yesterday: 75 °F (at 2:20 PM)
Minimum temperature yesterday: 61 °F (at 3:50 AM)
Average temperature yesterday: 67 °F

Past Weeks' High & Low Weather Summary

 TemperatureHumidityPressure
High75 °F (Sep 16, 2:20 PM)100% (Sep 2, 8:20 PM)30.24 "Hg (Sep 2, 8:20 PM)
Low57 °F (Sep 6, 6:20 AM)57% (Sep 16, 2:50 PM)29.74 "Hg (Sep 17, 4:50 AM)
Average64 °F86%30.05 "Hg
* Reported Sep 2 1:20 PM — Sep 17 1:20 PM, St. Peter Port, Weather by CustomWeather, © 2014

Note: Actual official high and low records may vary slightly from our data, if they occured in-between our weather recording intervals... More about our weather records

Advertising

St. Peter Port weather history for previous 24 hours

 ConditionsComfort  
Time TempWeatherWind HumidityBarometerVisibility
1:20 PM
Sep 17
68 °FClear.20 mph88%29.74 "Hg5 mi
12:50 PM68 °FClear.20 mph88%29.74 "Hg5 mi
12:20 PM68 °FClear.18 mph88%29.74 "Hg6 mi
11:50 AM68 °FClear.17 mph88%29.74 "Hg6 mi
11:20 AM68 °FPassing clouds.20 mph88%29.74 "Hg6 mi
10:50 AM66 °FPassing clouds.17 mph94%29.77 "Hg4 mi
10:20 AM66 °FClear.17 mph88%29.77 "Hg4 mi
9:50 AM66 °FClear.17 mph88%29.77 "Hg5 mi
9:20 AM64 °FClear.16 mph94%29.74 "Hg5 mi
8:50 AM64 °FClear.16 mph94%29.74 "Hg5 mi
8:20 AM64 °FClear.15 mph94%29.74 "Hg5 mi
7:50 AM64 °FClear.14 mph88%29.74 "Hg5 mi
7:20 AM64 °FClear.14 mph88%29.74 "Hg5 mi
6:50 AM64 °FClear.14 mph88%29.74 "Hg10 mi
6:20 AM64 °FClear.14 mph88%29.74 "Hg10 mi
5:50 AM64 °FClear.13 mph88%29.74 "Hg10 mi
5:20 AM64 °FClear.12 mph88%29.74 "Hg10 mi
4:50 AM64 °FClear.12 mph88%29.74 "Hg10 mi
4:20 AM64 °FClear.14 mph88%29.77 "Hg10 mi
3:50 AM64 °FClear.14 mph88%29.77 "Hg10 mi
8:50 PM
Sep 16
66 °FClear.15 mph78%29.83 "Hg10 mi
8:20 PM66 °FSunny.14 mph83%29.83 "Hg10 mi
7:50 PM66 °FSunny.14 mph78%29.83 "Hg10 mi
7:20 PM68 °FSunny.14 mph73%29.83 "Hg10 mi
6:50 PM68 °FSunny.13 mph78%29.83 "Hg10 mi
6:20 PM70 °FSunny.10 mph73%29.83 "Hg10 mi
5:50 PM72 °FSunny.7 mph69%29.83 "Hg10 mi
5:20 PM72 °FPassing clouds.9 mph73%29.83 "HgN/A
4:50 PM72 °FPassing clouds.7 mph69%29.83 "HgN/A
4:20 PM72 °FPassing clouds.8 mph69%29.83 "HgN/A
3:50 PM72 °FPassing clouds.8 mph69%29.83 "HgN/A
3:20 PM75 °FPassing clouds.10 mph57%29.83 "HgN/A
2:50 PM75 °FPassing clouds.9 mph57%29.86 "HgN/A
2:20 PM75 °FPassing clouds.8 mph61%29.86 "HgN/A
Weather by CustomWeather, © 2014

See weather overviewHow to use our weather pages